Location: Bovenkerk
(52.2915°N, 4.8336°E)
Time: 21:38:16
(UTC+00:00)

N. Korean satellite - Pass Details

Date: 09 March 2021
Orbit: 452 x 499 km, 97.2° (Epoch: 15 April)

Event Time Altitude Azimuth Distance (km) Brightness Sun altitude
Rises 04:15:36 0° 26° (NNE) 2,543 10.9 -17.9°
Reaches altitude 10° 04:18:07 10° 45° (NE) 1,668 10.2 -17.6°
Maximum altitude 04:20:44 19° 92° (E) 1,218 9.5 -17.2°
Drops below altitude 10° 04:23:22 10° 139° (SE) 1,676 9.6 -16.8°
Sets 04:25:54 0° 158° (SSE) 2,560 10.3 -16.4°
